Location: Anankanda
(14.7841°N, 3.0348°W)
Time: 00:34:42
(UTC+00:00)

GPS 2-12 Rocket1 - Pass Details

Date: 17 January 2021
Orbit: 586 x 651 km, 20.0° (Epoch: 07 March)

Event Time Altitude Azimuth Distance (km) Brightness Sun altitude
Rises 19:15:02 0° 267° (W) 2,796 7.9 -17.2°
Reaches altitude 10° 19:17:23 10° 272° (W) 1,892 6.7 -17.7°
Maximum altitude 19:21:43 56° 350° (N) 694 3.2 -18.7°
Enters shadow 19:22:55 41° 43° (NE) 850 3.3 -19.0°
